When you browse on this site, cookies collect data to enhance your experience and personalize the content and advertising you see.
Visit our Privacy Policy to learn more. By continuing to use the site, you agree to this use of cookies and data.
EN

Hourly Weather Montville Center

Today, 12 August, Wednesday

Time Temperature Precipitation Wind Pressure Humidity
00:00 +22°C° 0.1 mm 3 mps 750 mmHg 96%
01:00 +23°C° 0.1 mm 2 mps 750 mmHg 96%
02:00 +23°C° 0.3 mm 2 mps 750 mmHg 97%
03:00 +23°C° 0.3 mm 2 mps 750 mmHg 97%
04:00 +23°C° 0.3 mm 2 mps 750 mmHg 98%
05:00 +23°C° 0 mm 2 mps 750 mmHg 97%
06:00 +24°C° 0 mm 2 mps 751 mmHg 95%
07:00 +25°C° 0 mm 2 mps 751 mmHg 94%
08:00 +27°C° 0 mm 2 mps 751 mmHg 84%
09:00 +29°C° 0 mm 2 mps 751 mmHg 73%
10:00 +31°C° 0 mm 2 mps 751 mmHg 62%
11:00 +32°C° 0.3 mm 2 mps 751 mmHg 62%
12:00 +32°C° 0.3 mm 2 mps 751 mmHg 62%
13:00 +32°C° 0.3 mm 2 mps 751 mmHg 62%
14:00 +31°C° 0.6 mm 2 mps 751 mmHg 68%
15:00 +31°C° 0.6 mm 2 mps 751 mmHg 75%
16:00 +30°C° 0.6 mm 2 mps 751 mmHg 81%
17:00 +28°C° 0.4 mm 2 mps 751 mmHg 85%
18:00 +26°C° 0.4 mm 2 mps 751 mmHg 88%
19:00 +25°C° 0.4 mm 2 mps 751 mmHg 92%
20:00 +24°C° 0.1 mm 1 mps 752 mmHg 92%
21:00 +24°C° 0.1 mm 1 mps 752 mmHg 93%
22:00 +23°C° 0.1 mm 1 mps 752 mmHg 93%
23:00 +23°C° 0.1 mm 1 mps 752 mmHg 92%

Tomorrow, 13 August, Thursday

Time Temperature Precipitation Wind Pressure Humidity
00:00 +22°C° 0.1 mm 1 mps 752 mmHg 91%
01:00 +22°C° 0.1 mm 1 mps 752 mmHg 89%
02:00 +21°C° 0.1 mm 1 mps 752 mmHg 88%
03:00 +21°C° 0.1 mm 1 mps 752 mmHg 87%
04:00 +19°C° 0.1 mm 2 mps 752 mmHg 86%
05:00 +20°C° 0.2 mm 2 mps 753 mmHg 83%
06:00 +22°C° 0.2 mm 1 mps 753 mmHg 80%
07:00 +23°C° 0.2 mm 1 mps 753 mmHg 77%
08:00 +25°C° 0.2 mm 1 mps 753 mmHg 67%
09:00 +27°C° 0.2 mm 2 mps 753 mmHg 56%
10:00 +30°C° 0.2 mm 2 mps 753 mmHg 46%
11:00 +31°C° 0.1 mm 2 mps 753 mmHg 44%
12:00 +32°C° 0.1 mm 2 mps 753 mmHg 43%
13:00 +34°C° 0.1 mm 2 mps 753 mmHg 41%
14:00 +32°C° 0.1 mm 2 mps 753 mmHg 47%
15:00 +30°C° 0.1 mm 2 mps 753 mmHg 52%
16:00 +29°C° 0.1 mm 2 mps 752 mmHg 58%
17:00 +27°C° 0 mm 2 mps 752 mmHg 67%
18:00 +25°C° 0 mm 1 mps 752 mmHg 77%
19:00 +21°C° 0 mm 0 mps 752 mmHg 87%
20:00 +23°C° 0 mm 1 mps 752 mmHg 87%
21:00 +23°C° 0 mm 1 mps 753 mmHg 88%
22:00 +23°C° 0 mm 1 mps 753 mmHg 88%
23:00 +23°C° 0 mm 1 mps 753 mmHg 90%

Day after tomorrow, 14 August, Friday

Time Temperature Precipitation Wind Pressure Humidity
00:00 +20°C° 0 mm 0 mps 752 mmHg 91%
01:00 +20°C° 0 mm 0 mps 752 mmHg 93%
02:00 +20°C° 0.1 mm 0 mps 752 mmHg 93%
03:00 +22°C° 0.1 mm 1 mps 752 mmHg 94%
04:00 +22°C° 0.1 mm 1 mps 752 mmHg 94%
05:00 +22°C° 0.1 mm 1 mps 752 mmHg 92%
06:00 +23°C° 0.1 mm 1 mps 753 mmHg 91%
07:00 +23°C° 0.1 mm 2 mps 753 mmHg 89%
08:00 +24°C° 0.1 mm 2 mps 753 mmHg 83%
09:00 +25°C° 0.1 mm 2 mps 753 mmHg 78%
10:00 +26°C° 0.1 mm 3 mps 753 mmHg 73%
11:00 +27°C° 0.1 mm 3 mps 753 mmHg 69%
12:00 +27°C° 0.1 mm 3 mps 753 mmHg 64%
13:00 +27°C° 0.1 mm 3 mps 753 mmHg 60%
14:00 +27°C° 0 mm 2 mps 753 mmHg 62%
15:00 +26°C° 0 mm 2 mps 752 mmHg 63%
16:00 +25°C° 0 mm 1 mps 752 mmHg 65%
17:00 +25°C° 0 mm 1 mps 752 mmHg 68%
18:00 +24°C° 0 mm 1 mps 752 mmHg 71%
19:00 +23°C° 0 mm 1 mps 752 mmHg 74%
20:00 +22°C° 0 mm 1 mps 752 mmHg 75%
21:00 +21°C° 0 mm 2 mps 752 mmHg 76%
22:00 +20°C° 0 mm 2 mps 753 mmHg 76%
23:00 +20°C° 0 mm 2 mps 752 mmHg 78%

15 August, Saturday

Time Temperature Precipitation Wind Pressure Humidity
00:00 +20°C° 0 mm 2 mps 752 mmHg 80%
01:00 +19°C° 0 mm 2 mps 752 mmHg 82%
02:00 +19°C° 0 mm 2 mps 752 mmHg 82%
03:00 +19°C° 0 mm 2 mps 752 mmHg 82%
04:00 +19°C° 0 mm 2 mps 752 mmHg 82%
05:00 +20°C° 0.1 mm 2 mps 752 mmHg 83%
06:00 +20°C° 0.1 mm 2 mps 752 mmHg 83%
07:00 +20°C° 0.1 mm 2 mps 752 mmHg 84%
08:00 +21°C° 0.1 mm 3 mps 753 mmHg 81%
09:00 +22°C° 0.1 mm 3 mps 753 mmHg 77%
10:00 +23°C° 0.1 mm 4 mps 753 mmHg 74%
11:00 +25°C° 0.1 mm 4 mps 753 mmHg 68%
12:00 +26°C° 0.1 mm 4 mps 753 mmHg 62%
13:00 +27°C° 0.1 mm 5 mps 753 mmHg 56%
14:00 +26°C° 0 mm 5 mps 752 mmHg 57%
15:00 +26°C° 0 mm 5 mps 752 mmHg 58%
16:00 +25°C° 0 mm 5 mps 752 mmHg 59%
17:00 +23°C° 0 mm 5 mps 752 mmHg 64%
18:00 +22°C° 0 mm 5 mps 753 mmHg 69%
19:00 +21°C° 0 mm 5 mps 753 mmHg 73%
20:00 +20°C° 0 mm 4 mps 753 mmHg 78%
21:00 +19°C° 0 mm 4 mps 753 mmHg 82%
22:00 +18°C° 0 mm 4 mps 753 mmHg 86%
23:00 +18°C° 0 mm 4 mps 753 mmHg 88%

16 August, Sunday

Time Temperature Precipitation Wind Pressure Humidity
00:00 +17°C° 0 mm 4 mps 753 mmHg 90%
01:00 +17°C° 0 mm 4 mps 753 mmHg 93%
02:00 +17°C° 0 mm 4 mps 753 mmHg 92%
03:00 +17°C° 0 mm 4 mps 753 mmHg 91%
04:00 +15°C° 0 mm 4 mps 753 mmHg 91%
05:00 +17°C° 0 mm 5 mps 753 mmHg 87%
06:00 +19°C° 0 mm 5 mps 753 mmHg 84%
07:00 +20°C° 0 mm 5 mps 753 mmHg 81%
08:00 +21°C° 0 mm 5 mps 753 mmHg 72%
09:00 +23°C° 0 mm 6 mps 753 mmHg 63%
10:00 +26°C° 0 mm 6 mps 753 mmHg 55%
11:00 +27°C° 0 mm 6 mps 753 mmHg 52%
12:00 +27°C° 0 mm 6 mps 753 mmHg 49%
13:00 +28°C° 0 mm 6 mps 752 mmHg 46%
14:00 +27°C° 0 mm 6 mps 752 mmHg 49%
15:00 +27°C° 0 mm 6 mps 752 mmHg 52%
16:00 +26°C° 0 mm 6 mps 752 mmHg 55%
17:00 +25°C° 0 mm 5 mps 752 mmHg 63%
18:00 +22°C° 0 mm 5 mps 752 mmHg 71%
19:00 +20°C° 0 mm 4 mps 752 mmHg 79%
20:00 +20°C° 0 mm 4 mps 752 mmHg 81%
21:00 +19°C° 0 mm 4 mps 752 mmHg 83%
22:00 +19°C° 0 mm 4 mps 752 mmHg 85%
23:00 +19°C° 0 mm 4 mps 752 mmHg 86%

17 August, Monday

Time Temperature Precipitation Wind Pressure Humidity
00:00 +20°C° 0 mm 4 mps 751 mmHg 88%
01:00 +20°C° 0 mm 4 mps 751 mmHg 89%
02:00 +20°C° 0 mm 4 mps 751 mmHg 89%
03:00 +20°C° 0 mm 5 mps 751 mmHg 89%
04:00 +20°C° 0 mm 5 mps 750 mmHg 88%
05:00 +21°C° 0.1 mm 5 mps 750 mmHg 88%
06:00 +21°C° 0.1 mm 5 mps 750 mmHg 88%
07:00 +21°C° 0.1 mm 5 mps 750 mmHg 88%
08:00 +21°C° 0.2 mm 5 mps 750 mmHg 90%
09:00 +21°C° 0.2 mm 5 mps 750 mmHg 92%
10:00 +21°C° 0.2 mm 5 mps 750 mmHg 95%
11:00 +22°C° 0.2 mm 5 mps 750 mmHg 94%
12:00 +22°C° 0.2 mm 5 mps 749 mmHg 94%
13:00 +23°C° 0.2 mm 4 mps 749 mmHg 93%
14:00 +23°C° 0.4 mm 4 mps 749 mmHg 93%
15:00 +25°C° 0.4 mm 4 mps 748 mmHg 94%
16:00 +25°C° 0.4 mm 4 mps 748 mmHg 94%
17:00 +25°C° 0.5 mm 3 mps 748 mmHg 95%
18:00 +24°C° 0.5 mm 3 mps 748 mmHg 97%
19:00 +24°C° 0.5 mm 2 mps 747 mmHg 98%
20:00 +24°C° 0.8 mm 2 mps 747 mmHg 98%
21:00 +23°C° 0.8 mm 2 mps 747 mmHg 99%
22:00 +23°C° 0.8 mm 2 mps 747 mmHg 99%
23:00 +23°C° 0.7 mm 1 mps 747 mmHg 99%
Show more